[[{"header":{"parameterUnit":"m.s-1","parameterCategory":1,"la1":30.2992,"la2":30.254,"lo1":-89.0895,"lo2":-89.0443,"dy":0.0025,"dx":0.0025,"nx":19,"ny":19,"refTime":"2026-03-17T09:00:00:Z","depth":0,"parameterNumber":2,"parameterNumberName":"U-component_of_WINDS"},"data":[0,0,0,-1.1651,-1.1653,-1.1745,-1.1745,-1.1865,-1.1866,0,0,0,0,0,0,0,0,0,0,0,-1.1624,-1.1625,-1.1651,-1.1653,-1.1745,-1.1745,-1.1865,-1.1866,0,0,0,0,0,0,0,0,0,0,0,-1.1624,-1.1625,-1.1626,-1.1654,-1.1745,-1.1745,-1.1865,-1.1795,0,0,0,0,0,0,0,0,0,0,-1.1706,-1.1681,-1.1625,-1.1626,-1.1654,-1.1745,-1.1745,-1.1792,-1.1799,-1.1825,0,-1.1846,0,-1.1858,-1.1874,-1.1875,0,0,0,-1.1654,-1.1674,-1.1699,-1.1626,-1.1655,-1.1745,-1.1704,-1.1796,-1.1805,-1.1835,-1.1847,-1.1852,-1.186,-1.1875,-1.1876,-1.2016,-1.2017,0,0,-1.1649,-1.1641,-1.1693,-1.1704,-1.1689,-1.1701,-1.1707,-1.1801,-1.1815,-1.1848,-1.1854,-1.1862,-1.1876,-1.1877,-1.2016,-1.2017,0,0,0,-1.1634,-1.1638,-1.166,-1.1699,-1.1716,-1.1703,-1.171,-1.1811,-1.1818,-1.1856,-1.1863,-1.1877,-1.1878,-1.2015,-1.2016,-1.2041,0,0,0,-1.1631,-1.1629,-1.1658,-1.1654,-1.1714,-1.1764,-1.1717,-1.1812,-1.1823,-1.1863,-1.1877,-1.1879,-1.2014,-1.2016,-1.2039,-1.2054,0,0,0,-1.1618,-1.1628,-1.1641,-1.1654,-1.1693,-1.1763,-1.1776,-1.1814,-1.1827,-1.1875,-1.188,-1.2014,-1.2015,-1.2037,-1.2051,-1.209,0,0,0,-1.1603,-1.1662,-1.1641,-1.171,-1.1692,-1.1777,-1.1775,-1.1839,-1.1883,-1.1877,-1.2015,-1.2016,-1.2036,-1.2049,-1.2087,-1.2121,-1.2134,0,0,-1.1674,-1.167,-1.1711,-1.1695,-1.1782,-1.1763,-1.1854,-1.1902,-1.1914,-1.1982,-1.1985,-1.2039,-1.2051,-1.2089,-1.2209,-1.2219,0,0,0,-1.1731,-1.1761,-1.1785,-1.1826,-1.1863,-1.1896,-1.193,-1.1948,-1.2006,-1.1947,-1.2064,-1.2071,-1.2093,-1.211,-1.2119,-1.2139,-1.2023,-1.2023,-1.2023,-1.1822,-1.1832,-1.1901,-1.1923,-1.1962,-1.1997,-1.203,-1.206,-1.206,-1.2088,-1.2108,-1.2179,-1.2198,-1.2205,-1.2226,-1.2126,-1.2126,-1.2126,-1.2126,-1.1926,-1.197,-1.1968,-1.2034,-1.2045,-1.2101,-1.2137,-1.2135,-1.219,-1.2164,-1.2185,-1.2157,-1.2216,-1.2235,-1.2128,-1.2128,-1.2128,-1.2128,-1.2127,-1.1987,-1.201,-1.203,-1.2089,-1.2134,-1.2155,-1.2207,-1.2216,-1.2225,-1.2245,-1.2268,-1.2268,-1.227,-1.2255,-1.2256,-1.2256,-1.2256,-1.2256,-1.2256,-1.2043,-1.2064,-1.2107,-1.215,-1.2177,-1.2215,-1.2249,-1.2277,-1.231,-1.2313,-1.2313,-1.2311,-1.2219,-1.2196,-1.226,-1.226,-1.2259,-1.2259,-1.2258,-1.2148,-1.2125,-1.219,-1.2218,-1.227,-1.2314,-1.2324,-1.238,-1.2404,-1.243,-1.2423,-1.2353,-1.2351,-1.2344,-1.2325,-1.242,-1.242,-1.242,-1.242,-1.22,-1.2199,-1.2268,-1.2311,-1.2354,-1.2369,-1.2444,-1.2472,-1.2498,-1.2513,-1.2501,-1.2477,-1.2469,-1.2471,-1.2462,-1.2445,-1.2567,-1.2567,-1.2567,-1.2265,-1.2268,-1.233,-1.2353,-1.2394,-1.243,-1.2501,-1.2552,-1.2576,-1.2573,-1.2526,-1.252,-1.2481,-1.2467,-1.2464,-1.2449,-1.2418,0,0]},{"header":{"parameterUnit":"m.s-1","parameterCategory":1,"la1":30.2992,"la2":30.254,"lo1":-89.0895,"lo2":-89.0443,"dy":0.0025,"dx":0.0025,"nx":19,"ny":19,"refTime":"2026-03-17T09:00:00:Z","depth":0,"parameterNumber":3,"parameterNumberName":"V-component_of_WINDS"},"data":[0,0,0,2.8008,2.8008,2.8019,2.8019,2.8044,2.8044,0,0,0,0,0,0,0,0,0,0,0,2.8013,2.8014,2.8008,2.8008,2.8019,2.8019,2.8044,2.8044,0,0,0,0,0,0,0,0,0,0,0,2.8013,2.8014,2.8014,2.8008,2.8019,2.8019,2.8044,2.8031,0,0,0,0,0,0,0,0,0,0,2.8019,2.8033,2.8014,2.8014,2.8009,2.8019,2.8019,2.8031,2.8032,2.8045,0,2.8059,0,2.8052,2.8047,2.8047,0,0,0,2.8002,2.8032,2.8027,2.8014,2.8009,2.8019,2.8012,2.8031,2.8033,2.8047,2.8059,2.806,2.8053,2.8047,2.8047,2.8142,2.8143,0,0,2.8001,2.802,2.8026,2.8028,2.8029,2.8012,2.8013,2.8032,2.8047,2.8059,2.806,2.8053,2.8047,2.8048,2.8141,2.8142,0,0,0,2.8004,2.802,2.8014,2.8028,2.8029,2.8012,2.8013,2.8046,2.8043,2.8061,2.8053,2.8048,2.8048,2.8141,2.8142,2.8196,0,0,0,2.8003,2.8021,2.8014,2.8026,2.8029,2.8038,2.8027,2.8041,2.8043,2.8053,2.8048,2.8048,2.814,2.8141,2.8192,2.8217,0,0,0,2.801,2.8022,2.8026,2.8026,2.8032,2.8037,2.8035,2.8041,2.8039,2.8047,2.8049,2.8139,2.8141,2.8189,2.8213,2.8246,0,0,0,2.8022,2.8076,2.8028,2.8085,2.8032,2.8071,2.8034,2.8063,2.8076,2.8048,2.814,2.8142,2.8188,2.821,2.8243,2.8275,2.8292,0,0,2.81,2.8086,2.8118,2.8075,2.8128,2.8068,2.8128,2.8123,2.8107,2.8131,2.8133,2.8193,2.8212,2.8245,2.8379,2.8392,0,0,0,2.8148,2.8171,2.8181,2.8195,2.8193,2.8191,2.8175,2.8173,2.8192,2.8124,2.8215,2.8226,2.8244,2.8259,2.827,2.8283,2.815,2.815,2.815,2.8285,2.8261,2.8311,2.8288,2.8301,2.8283,2.8291,2.8284,2.8257,2.8279,2.8285,2.837,2.8388,2.8396,2.841,2.8303,2.8303,2.8303,2.8303,2.8395,2.8422,2.8383,2.8418,2.8391,2.8419,2.8403,2.8382,2.8403,2.8364,2.8379,2.8335,2.8411,2.8421,2.8307,2.8306,2.8306,2.8306,2.8305,2.848,2.8488,2.8485,2.85,2.8514,2.8489,2.851,2.8486,2.8463,2.8478,2.848,2.8479,2.8473,2.8481,2.8482,2.8482,2.8482,2.8482,2.8483,2.8568,2.8562,2.8583,2.8584,2.8588,2.859,2.8571,2.8574,2.8571,2.8551,2.8551,2.8519,2.8424,2.8398,2.8487,2.8486,2.8486,2.8485,2.8485,2.8685,2.8654,2.8687,2.8691,2.8687,2.8702,2.8671,2.8678,2.8677,2.8688,2.8653,2.8587,2.857,2.8561,2.854,2.866,2.866,2.866,2.866,2.8754,2.8744,2.877,2.8777,2.8782,2.8757,2.8792,2.8777,2.8756,2.8753,2.8733,2.8704,2.8696,2.8684,2.8672,2.8652,2.8797,2.8797,2.8797,2.8823,2.8811,2.8847,2.8826,2.8821,2.8817,2.8848,2.8857,2.8828,2.8802,2.875,2.8744,2.8696,2.8683,2.8655,2.8638,2.86,0,0]}]]